Regional Weather Roundup
Issued by NWS

Home | Current Version | Previous Version | Graphics & Text | Print | Product List | Glossary On
Versions: 1 2 3 4 5 6 7 8 9 10 11 12 13 14 15 16 17 18 19 20 21 22 23 24 25 26 27 28 29 30 31 32 33 34 35 36 37 38 39 40 41 42 43 44 45 46 47 48 49 50
000
ASUS43 KDTX 050801
RWRMI
MICHIGAN HOURLY REGIONAL WEATHER ROUNDUP
NATIONAL WEATHER SERVICE DETROIT/PONTIAC MI
300 AM EST MON DEC 05 2016

NOTE: "FAIR" INDICATES FEW OR NO CLOUDS BELOW 12,000 FEET WITH NO
SIGNIFICANT WEATHER AND/OR OBSTRUCTION TO VISIBILITY.

MIZ047>049-052>055-059>063-066>070-074>076-081>083-050900-
SOUTHEAST LOWER MICHIGAN

CITY           SKY/WX    TMP DP  RH WIND       PRES   REMARKS
ADRIAN         CLOUDY    34  32  92 W8        29.90R WCI  27
ALMA           CLOUDY    32  31  99 SW7       29.86R FOG     WCI  25
ANN ARBOR      CLOUDY    34  32  92 W9        29.88R WCI  27
BAD AXE        LGT SNOW  32  32 100 W5        29.82R WCI  27
CARO           CLOUDY    32  32 100 SW5       29.83R FOG     WCI  27
DETROIT CITY   CLOUDY    35  34  96 W13       29.88R WCI  26
DETROIT        CLOUDY    34  33  96 W9        29.90R FOG     WCI  27
FLINT          CLOUDY    33  31  92 W6        29.86R WCI  28
GROSSE ILE     CLOUDY    35  33  91 W8        29.89R WCI  29
HILLSDALE      CLOUDY    32  32 100 W9        29.89R WCI  24
HOWELL         CLOUDY    32  31  96 W6        29.86R FOG     WCI  27

CITY           SKY/WX    TMP DP  RH WIND       PRES   REMARKS
JACKSON        CLOUDY    33  31  92 W12       29.88R WCI  24
LAMBERTVILLE   CLOUDY    37  32  84 W8        29.92R WCI  30
LANSING        CLOUDY    33  30  88 SW10      29.88R WCI  25
LAPEER         NOT AVBL
MASON          CLOUDY    32  32 100 W3        29.88R FOG
MONROE         CLOUDY    35  33  93 W14G20    29.89R WCI  26
MT. CLEMENS    CLOUDY    35  35  97 W9        29.84R WCI  28
PONTIAC        CLOUDY    33  30  88 W12       29.84R WCI  24
PORT HOPE        N/A     33  32  96 VRB3      29.79R
PORT HURON     CLOUDY    34  34 100 W5        29.84R WCI  30
TRI CITIES     CLOUDY    32  32 100 SW8       29.85R FOG     WCI  25
MIDLAND        CLOUDY    33  32  96 SW7       29.84R FOG     WCI  27
TROY           CLOUDY    35  32  90 W8        29.88R WCI  28
SAGINAW HB     CLOUDY    32  32 100 SW5       29.84R FOG     WCI  27
$$
MIZ043>046-050>051-056>058-064>065-071>073-077>080-050900-
SOUTHWEST LOWER MICHIGAN

CITY           SKY/WX    TMP DP  RH WIND       PRES   REMARKS
BATTLE CREEK   CLOUDY    34  33  96 W10       29.90R WCI  26
BENTON HARBOR  CLOUDY    37  31  78 W21G28    29.95R WCI  26
BIG RAPIDS     CLOUDY    35  32  88 W13G18    29.82R WCI  26
COLDWATER      CLOUDY    34  33  97 W13       29.92R WCI  25
FREMONT        CLOUDY    34  30  86 W12G18    29.87R WCI  25
HOLLAND        CLOUDY    37  31  78 W15G25    29.90R WCI  28
GRAND RAPIDS   CLOUDY    34  31  88 W12       29.88R WCI  25
IONIA          CLOUDY    32  32  99 W9        29.86R WCI  25
KALAMAZOO      CLOUDY    35  31  85 W12       29.92R WCI  27
LUDINGTON      CLOUDY    35  31  85 W8G18     29.84R WCI  29
MARSHALL       CLOUDY    33  32  96 W10       29.89R WCI  25
MOUNT PLEASANT CLOUDY    32  32 100 CALM      29.83R
MUSKEGON       CLOUDY    37  31  78 W17G24    29.89R WCI  27
SOUTH HAVEN    CLOUDY    38  34  85 W8G22     29.93R WCI  32
$$
MIZ016>042-050900-
NORTHERN LOWER MICHIGAN

CITY           SKY/WX    TMP DP  RH WIND       PRES   REMARKS
ALPENA         LGT SNOW  32  31  96 S3        29.79R FOG
BEAVER ISLAND  CLOUDY    36  34  94 W14G21    29.74R WCI  27
BELLAIRE       CLOUDY    33  32  96 S3        29.78R
CADILLAC       CLOUDY    32  30  92 W12G17    29.78R WCI  23
CHARLEVOIX     CLOUDY    34  34 100 S6        29.78R WCI  29
FRANKFORT      CLOUDY    37  31  81 W16G22    29.80R WCI  27
GAYLORD        LGT SNOW  32  28  85 SW10      29.75R FOG     WCI  24
GRAYLING       CLOUDY    32  31  96 CALM      29.78R
HARBOR SPRINGS LGT SNOW  32  32  99 CALM      29.76R
HOUGHTON LAKE  CLOUDY    32  30  92 SW8       29.79R WCI  25
MANISTEE       CLOUDY    35  30  82 W14       29.82R WCI  26
OSCODA         LGT SNOW  33  32  97 MISG      29.80R
PELLSTON       CLOUDY    32  30  92 SE6       29.76S FOG     WCI  26
ROGERS CITY    LGT SNOW  32  31  96 CALM      29.78S
TRAVERSE CITY  CLOUDY    34  32  92 CALM      29.78R VSB 1
$$
MIZ007>008-015-050900-
EASTERN UPPER MICHIGAN

CITY           SKY/WX    TMP DP  RH WIND       PRES   REMARKS
KINROSS        LGT SNOW  31  30  96 SE7       29.74S FOG     WCI  24
MACKINAC ISLAN LGT SNOW  32  32 100 S8        29.74S WCI  25
NEWBERRY       LGT SNOW  32  32  99 S3        29.71S
S. S. MARIE    LGT SNOW  32  31  96 SE3       29.74S FOG
MUNISING         N/A     32  30  92 SW8       29.72R WCI  25
$$
MIZ004>006-011>014-085-050900-
CENTRAL UPPER MICHIGAN

CITY           SKY/WX    TMP DP  RH WIND       PRES   REMARKS
MANISTIQUE     CLOUDY    32  31  94 W3        29.73S
ESCANABA       CLOUDY    31  30  96 SW7       29.75R WCI  24
MENOMINEE      CLOUDY    32  31  96 W8        29.78  WCI  25
SAWYER-GWINN   CLOUDY    30  28  94 SW5       29.70R WCI  25
$$
MIZ001>003-009>011-084-050900-
WESTERN UPPER MICHIGAN

CITY           SKY/WX    TMP DP  RH WIND       PRES   REMARKS
IRON MOUNTAIN  CLOUDY    32  28  85 SW8       29.71R WCI  25
HOUGHTON       CLOUDY    30  27  88 SW5       29.65R WCI  25
COPPER HARBOR    N/A     31  30  96 VRB5      29.66S WCI  26
IRONWOOD       FLURRIES  33  28  81 W13       29.69R WCI  24
$$

ABBREVIATIONS USED IN REMARKS
   TC - TEMPERATURE IN CELSIUS
  WCI - WIND CHILL INDEX
   HX - HEAT INDEX
  VSB - VISIBILITY





USA.gov is the U.S. government's official web portal to all federal, state and local government web resources and services.